Погода в Блумфонтейне

ЮАР     29°08′06″S   26°13′41″E
темп.,
°C
ветер,
м/с
пор.,
м/с
влажн.,
%
обл.,
%
осадки,
мм/ч
давл.,
гПа
погр.,
м
17 августа, ср
ср1723:00+9ссз442429 0.0 101933
02:00+8ссв44256 0.0 101836
05:00+6св45275 0.0 101759
08:00+8св472660 0.0 1018173
11:00+18сз8121733 0.0 1015968
14:00+21зсз91413100 0.0 10101805
17:00+19з6917100 0.0 1009411
20:00+13з3423100 0.0 101227
18 августа, чт
чт1823:00+10з3426100 0.0 101440
02:00+7ююз22325 0.0 101310
05:00+6з22355 0.0 101411
08:00+8юз34375 0.0 1015121
11:00+13зюз45304 0.0 10141133
14:00+16зсз79225 0.0 10101824
17:00+13з7835100 0.0 10111885
20:00+8ююз610539 0.0 1014336
19 августа, пт
пт1923:00+7юз6857100 0.0 10171060
02:00+6с227431 0.3 1017163
05:00+4юз238455 0.7 1018263
08:00+5юз5969100 0.9 1019541
11:00+10юз794270 0.0 10191795
14:00+13ююз78375 0.0 10171701
17:00+12юз78330 0.0 10181560
20:00+8зюз33460 0.0 102122
20 августа, сб
сб2023:00+7зюз512480 0.0 1022235
02:00+5з511530 0.0 1022211
05:00+3з512620 0.0 1024297
08:00+3зюз612685 0.0 1027605
11:00+10юз78410 0.0 10251125
14:00+13юз89280 0.0 10221445
17:00+12ююз79250 0.0 10221550
20:00+7ю33380 0.0 102741
21 августа, вс
вс2123:00+6ю33420 0.0 102719
02:00+4юв22510 0.0 102810
05:00+3вюв22540 0.0 102810
08:00+7в11410 0.0 102961
11:00+13зюз22280 0.0 1027993
14:00+16зюз33230 0.0 10231365
17:00+16зсз22240 0.0 10231278
20:00+11з22350 0.0 102511